Weather History for K2J9 - January, 2014

Change the Weather History Date:

Thursday, January 2, 2014

  Actual Average (KTLH) Record (KTLH)
Temperature  
Mean Temperature 50 °F 51 °F  
Max Temperature 59 °F 63 °F 80 °F (1996)
Min Temperature 41 °F 39 °F 18 °F (1928)
Degree Days  
Heating Degree Days 15    
Month to date heating degree days  
Since 1 July heating degree days  
Cooling Degree Days 0    
Month to date cooling degree days  
Year to date cooling degree days  
Moisture  
Dew Point 51 °F    
Average Humidity 92    
Maximum Humidity 100    
Minimum Humidity 57    
Precipitation  
Precipitation 0.39 in 0.12 in 1.96 in (1967)
Month to date precipitation 0.24  
Year to date precipitation 0.24  
Sea Level Pressure  
Sea Level Pressure 29.99 in    
Wind  
Wind Speed 3 mph (WNW)    
Max Wind Speed 16 mph    
Max Gust Speed 30 mph    
Visibility 6 miles    
Events      
T = Trace of Precipitation, MM = Missing Value Source: NWS Daily Summary

Daily Weather History Graph

Daily Weather History Graph

Search for Another Location

Airport or City:

Trip Planner

Search our weather history database for the weather conditions in past years. The results will help you decide how hot, cold, wet, or windy it might be!

Date:

Astronomy

Jan. 02, 2014 Rise Set
Actual Time 7:35 AM EST 5:49 PM EST
Civil Twilight 7:09 AM EST 6:15 PM EST
Nautical Twilight 6:39 AM EST 6:45 PM EST
Astronomical Twilight 6:10 AM EST 7:14 PM EST
Moon 8:23 AM EST (1/2) 7:36 PM EST (1/2)
Length of Visible Light 11h 06m
Length of Day
10h 13m
New Moon, 2% of the Moon is Illuminated
Jan 2
New Moon
Jan 7
First Quarter
Jan 15
Full
Jan 24
Last Quarter
Jan 30
New

Hourly Weather History & Observations

Time (EST) Temp. Windchill Dew Point Humidity Pressure Visibility Wind Dir Wind Speed Gust Speed Precip Events Conditions
12:15 AM 51.8 °F - 51.8 °F 100% 30.13 in 4.0 mi Calm Calm - N/A   Overcast
12:35 AM 51.8 °F - 51.8 °F 100% 30.13 in 5.0 mi Calm Calm - N/A   Overcast
12:55 AM 51.8 °F - 51.8 °F 100% 30.12 in 1.2 mi Calm Calm - 0.07 in   Overcast
1:15 AM 51.8 °F - 51.8 °F 100% 30.10 in 2.0 mi Calm Calm - 0.02 in   Overcast
1:35 AM 51.8 °F - 51.8 °F 100% 30.09 in 2.0 mi Calm Calm - 0.03 in   Overcast
1:55 AM 51.8 °F - 51.8 °F 100% 30.08 in 3.0 mi Calm Calm - 0.04 in   Overcast
2:55 AM 51.8 °F - 51.8 °F 100% 30.05 in 3.0 mi Calm Calm - 0.04 in   Overcast
3:15 AM 53.6 °F - 51.8 °F 94% 30.05 in 5.0 mi Calm Calm - 0.01 in   Overcast
3:35 AM 53.6 °F - 53.6 °F 100% 30.04 in 2.5 mi Calm Calm - 0.01 in   Overcast
3:55 AM 53.6 °F - 53.6 °F 100% 30.04 in 4.0 mi Calm Calm - 0.02 in   Overcast
4:15 AM 53.6 °F - 53.6 °F 100% 30.04 in 2.0 mi Calm Calm - 0.02 in   Overcast
4:35 AM 53.6 °F - 53.6 °F 100% 30.03 in 4.0 mi Calm Calm - 0.02 in   Overcast
4:55 AM 53.6 °F - 53.6 °F 100% 30.02 in 7.0 mi Calm Calm - 0.02 in   Overcast
5:35 AM 53.6 °F - 53.6 °F 100% 30.00 in 5.0 mi Calm Calm - 0.01 in   Overcast
5:55 AM 53.6 °F - 53.6 °F 100% 30.00 in 5.0 mi Calm Calm - 0.02 in   Overcast
6:15 AM 53.6 °F - 53.6 °F 100% 30.00 in 4.0 mi Calm Calm - 0.02 in   Overcast
6:35 AM 53.6 °F - 53.6 °F 100% 29.99 in 3.0 mi Calm Calm - 0.04 in   Overcast
6:55 AM 53.6 °F - 53.6 °F 100% 29.98 in 4.0 mi Calm Calm - 0.05 in   Overcast
7:15 AM 53.6 °F - 53.6 °F 100% 29.97 in 5.0 mi Calm Calm - 0.01 in   Overcast
7:35 AM 53.6 °F - 53.6 °F 100% 29.98 in 5.0 mi Calm Calm - 0.03 in   Overcast
7:55 AM 53.6 °F - 53.6 °F 100% 29.99 in 2.5 mi Calm Calm - 0.05 in   Overcast
8:15 AM 53.6 °F - 53.6 °F 100% 29.97 in 3.0 mi Calm Calm - N/A   Overcast
8:35 AM 53.6 °F - 53.6 °F 100% 29.94 in 3.0 mi East 3.5 mph - 0.02 in   Overcast
8:55 AM 53.6 °F - 53.6 °F 100% 29.96 in 4.0 mi Calm Calm - 0.02 in   Overcast
9:15 AM 53.6 °F - 53.6 °F 100% 29.96 in 7.0 mi Calm Calm - N/A   Overcast
9:35 AM 53.6 °F - 53.6 °F 100% 29.96 in 10.0 mi Calm Calm - N/A   Overcast
9:55 AM 53.6 °F - 53.6 °F 100% 29.96 in 5.0 mi Calm Calm - N/A   Overcast
10:15 AM 55.4 °F - 55.4 °F 100% 29.97 in 3.0 mi Calm Calm - N/A   Overcast
10:35 AM 55.4 °F - 55.4 °F 100% 29.97 in 5.0 mi Calm Calm - N/A   Overcast
10:55 AM 55.4 °F - 55.4 °F 100% 29.96 in 2.0 mi Calm Calm - N/A   Overcast
11:15 AM 57.2 °F - 57.2 °F 100% 29.96 in 3.0 mi Calm Calm - N/A   Overcast
11:35 AM 57.2 °F - 57.2 °F 100% 29.95 in 5.0 mi Calm Calm - N/A   Overcast
11:55 AM 57.2 °F - 57.2 °F 100% 29.94 in 3.0 mi Calm Calm - N/A   Overcast
12:15 PM 57.2 °F - 57.2 °F 100% 29.93 in 3.0 mi Calm Calm - N/A   Overcast
12:35 PM 57.2 °F - 57.2 °F 100% 29.91 in 4.0 mi SSE 6.9 mph - N/A   Overcast
12:55 PM 57.2 °F - 57.2 °F 100% 29.89 in 4.0 mi South 4.6 mph - N/A   Overcast
1:15 PM 59.0 °F - 59.0 °F 100% 29.88 in 7.0 mi South 6.9 mph - N/A   Overcast
1:35 PM 59.0 °F - 59.0 °F 100% 29.86 in 5.0 mi South 6.9 mph - N/A   Overcast
1:55 PM 59.0 °F - 59.0 °F 100% 29.86 in 5.0 mi South 6.9 mph - 0.01 in   Overcast
2:15 PM 59.0 °F - 59.0 °F 100% 29.85 in 2.0 mi SSW 6.9 mph - 0.01 in   Overcast
2:35 PM 59.0 °F - 59.0 °F 100% 29.87 in 3.0 mi West 13.8 mph 18.4 mph 0.02 in   Overcast
2:55 PM 57.2 °F - 57.2 °F 100% 29.86 in 2.0 mi WNW 9.2 mph - 0.03 in   Overcast
3:15 PM 57.2 °F - 57.2 °F 100% 29.87 in 7.0 mi WNW 10.4 mph - N/A   Overcast
3:35 PM 57.2 °F - 57.2 °F 100% 29.87 in 2.5 mi WNW 10.4 mph 16.1 mph N/A   Mostly Cloudy
3:55 PM 57.2 °F - 57.2 °F 100% 29.87 in 1.0 mi NW 10.4 mph - 0.02 in   Overcast
4:15 PM 57.2 °F - 55.4 °F 94% 29.89 in 10.0 mi NW 8.1 mph 18.4 mph N/A   Overcast
4:35 PM 57.2 °F - 55.4 °F 94% 29.89 in 2.5 mi WNW 8.1 mph - N/A   Overcast
4:55 PM 57.2 °F - 55.4 °F 94% 29.91 in 10.0 mi WNW 9.2 mph - N/A   Overcast
5:15 PM 55.4 °F - 55.4 °F 100% 29.92 in 10.0 mi WNW 11.5 mph 16.1 mph N/A   Mostly Cloudy
5:35 PM 55.4 °F - 53.6 °F 94% 29.91 in 10.0 mi WNW 8.1 mph - N/A   Scattered Clouds
5:55 PM 55.4 °F - 53.6 °F 94% 29.92 in 10.0 mi NW 8.1 mph - N/A   Mostly Cloudy
6:15 PM 55.4 °F - 53.6 °F 94% 29.94 in 10.0 mi WNW 8.1 mph - N/A   Overcast
6:35 PM 55.4 °F - 53.6 °F 94% 29.95 in 10.0 mi NW 6.9 mph - N/A   Overcast
6:55 PM 55.4 °F - 48.2 °F 77% 29.97 in 10.0 mi NW 12.7 mph 25.3 mph N/A   Mostly Cloudy
7:15 PM 53.6 °F - 46.4 °F 77% 29.98 in 10.0 mi NW 11.5 mph 18.4 mph N/A   Overcast
7:35 PM 51.8 °F - 44.6 °F 76% 30.00 in 10.0 mi WNW 12.7 mph 23.0 mph N/A   Overcast
7:55 PM 50.0 °F - 42.8 °F 76% 30.01 in 10.0 mi WNW 9.2 mph 18.4 mph N/A   Overcast
8:15 PM 50.0 °F - 41.0 °F 71% 30.02 in 10.0 mi NW 12.7 mph 25.3 mph N/A   Mostly Cloudy
8:35 PM 48.2 °F - 39.2 °F 71% 30.03 in 10.0 mi NW 10.4 mph - N/A   Mostly Cloudy
8:55 PM 48.2 °F - 37.4 °F 66% 30.06 in 10.0 mi NNW 16.1 mph 23.0 mph N/A   Scattered Clouds
9:15 PM 46.4 °F 41.5 °F 35.6 °F 66% 30.07 in 10.0 mi NW 10.4 mph 23.0 mph N/A   Clear
9:35 PM 46.4 °F 42.4 °F 35.6 °F 66% 30.09 in 10.0 mi NW 8.1 mph 21.9 mph N/A   Clear
9:55 PM 44.6 °F 38.8 °F 33.8 °F 66% 30.10 in 10.0 mi NW 11.5 mph 23.0 mph N/A   Clear
10:15 PM 44.6 °F 40.7 °F 33.8 °F 66% 30.10 in 10.0 mi NW 6.9 mph 17.3 mph N/A   Clear
10:35 PM 42.8 °F 37.0 °F 32.0 °F 66% 30.11 in 10.0 mi NW 10.4 mph 17.3 mph N/A   Clear
10:55 PM 42.8 °F 37.0 °F 32.0 °F 66% 30.11 in 10.0 mi NW 10.4 mph 16.1 mph N/A   Clear
11:15 PM 41.0 °F 34.7 °F 26.6 °F 57% 30.12 in 10.0 mi NNW 10.4 mph 29.9 mph N/A   Clear
11:35 PM 41.0 °F 36.4 °F 28.4 °F 61% 30.13 in 10.0 mi NW 6.9 mph - N/A   Clear
11:55 PM 41.0 °F 33.1 °F 30.2 °F 65% 30.14 in 10.0 mi NW 15.0 mph 24.2 mph N/A   Clear